Flag for Netherlands Weather past 2 weeks in Zoetermeer, Netherlands

Now
46 °F

Overcast.


Feels Like: 39 °F
Forecast: 44 / 48 °F
Wind: 20 mph from South

Location: Rotterdam Zestienhoven Airport

Current Time: Feb 28, 2015 at 7:31:22 PM

Latest Report: Feb 28, 2015 at 6:55 PM


Visibility: N/A

Pressure: 29.77 "Hg

Humidity: 66%

Dew point: 36 °F

Location of ZoetermeerLocation

Historic Weather in Zoetermeer — Graph

°F

Zoetermeer temperature yesterday

Maximum temperature yesterday: 46 °F (at 2:55 PM)
Minimum temperature yesterday: 34 °F (at 8:55 PM)
Average temperature yesterday: 41 °F

Past Weeks' High & Low Weather Summary

 TemperatureHumidityPressure
High50 °F (Feb 13, 5:25 PM)100% (Feb 16, 2:55 AM)30.74 "Hg (Feb 16, 2:55 AM)
Low27 °F (Feb 16, 1:25 AM)53% (Feb 18, 2:25 PM)29.27 "Hg (Feb 23, 3:25 AM)
Average41 °F85%29.91 "Hg
* Reported Feb 13 5:25 PM — Feb 28 5:55 PM, Zoetermeer, Weather by CustomWeather, © 2015

Note: Actual official high and low records may vary slightly from our data, if they occured in-between our weather recording intervals... More about our weather records

Advertising

Zoetermeer weather history for previous 24 hours

 ConditionsComfort  
Time TempWeatherWind HumidityBarometerVisibility
5:55 PM
Sat, Feb 28
48 °FOvercast.18 mph62%29.80 "HgN/A
5:25 PM48 °FMore clouds than sun.16 mph62%29.80 "HgN/A
4:55 PM48 °FPartly sunny.20 mph62%29.83 "HgN/A
4:25 PM48 °FScattered clouds.18 mph58%29.83 "HgN/A
3:55 PM48 °FOvercast.20 mph58%29.86 "HgN/A
3:25 PM48 °FClear.18 mph58%29.86 "HgN/A
2:55 PM48 °FClear.22 mph58%29.89 "HgN/A
2:25 PM48 °FCool.20 mph62%29.89 "HgN/A
1:55 PM46 °FCool.23 mph66%29.92 "HgN/A
1:25 PM46 °FClear.18 mph66%29.95 "HgN/A
12:55 PM45 °FClear.18 mph66%29.95 "HgN/A
12:25 PM43 °FClear.16 mph71%29.98 "HgN/A
11:55 AM43 °FClear.16 mph71%29.98 "HgN/A
11:25 AM41 °FClear.16 mph76%30.01 "HgN/A
10:55 AM41 °FClear.16 mph70%30.01 "HgN/A
10:25 AM39 °FClear.14 mph75%30.01 "HgN/A
9:55 AM39 °FClear.15 mph75%30.01 "HgN/A
9:25 AM37 °FClear.13 mph81%30.04 "HgN/A
8:55 AM37 °FClear.13 mph81%30.04 "HgN/A
8:25 AM36 °FClear.13 mph87%30.04 "HgN/A
7:55 AM36 °FClear.12 mph87%30.04 "HgN/A
7:25 AM36 °FClear.12 mph87%30.04 "HgN/A
6:55 AM36 °FClear.12 mph87%30.07 "HgN/A
6:25 AM36 °FClear.10 mph87%30.07 "HgN/A
5:55 AM36 °FClear.10 mph87%30.07 "HgN/A
5:25 AM36 °FChilly.10 mph87%30.07 "HgN/A
4:55 AM36 °FClear.10 mph87%30.07 "HgN/A
4:25 AM36 °FChilly.9 mph87%30.07 "HgN/A
3:55 AM36 °FChilly.9 mph87%30.09 "HgN/A
3:25 AM36 °FChilly.8 mph87%30.09 "HgN/A
2:55 AM36 °FChilly.8 mph87%30.09 "HgN/A
2:25 AM36 °FChilly.8 mph87%30.12 "HgN/A
1:55 AM36 °FChilly.7 mph87%30.12 "HgN/A
1:25 AM36 °FClear.8 mph93%30.12 "HgN/A
12:55 AM36 °FChilly.8 mph93%30.12 "HgN/A
12:25 AM36 °FClear.6 mph93%30.12 "HgN/A
11:55 PM
Fri, Feb 27
36 °FChilly.7 mph93%30.12 "HgN/A
11:25 PM37 °FClear.7 mph87%30.12 "HgN/A
10:55 PM36 °FChilly.5 mph87%30.12 "HgN/A
10:25 PM36 °FClear.7 mph87%30.15 "HgN/A
9:55 PM34 °FChilly.5 mph93%30.15 "HgN/A
9:25 PM34 °FChilly.6 mph87%30.15 "HgN/A
8:55 PM34 °FChilly.6 mph87%30.15 "HgN/A
8:25 PM36 °FChilly.5 mph87%30.15 "HgN/A
7:55 PM36 °FChilly.6 mph87%30.12 "HgN/A
7:25 PM37 °FClear.6 mph81%30.12 "HgN/A
Weather by CustomWeather, © 2015

See weather overviewHow to use our weather pages